#timestamp,LO_Frequency,Hit,StdDev 
1563811215.3,286047000.1,N
1563811235.1,286047002.5,N
1563811255.9,286047001.8,N
1563811275.7,286047001.4,N
1563811295.5,286046999.7,N
1563811315.4,286047000.5,N
1563811335.2,286047000.3,N
1563811355.0,286047001.8,N
1563811355.9,286047001.8,N
1563811375.8,286047000.0,N
1563811395.6,286047002.8,N
1563811415.5,286047003.0,N
1563811435.3,286047003.8,N
1563811455.1,286047000.1,N
1563811475.9,286046998.4,N
1563811495.7,286046998.1,N
1563811515.5,286047001.7,N
1563811535.4,286047002.3,N
1563811555.2,286047001.0,N
1563811575.1,286047002.5,N
1563811576.0,286047002.5,N
1563811595.8,286047001.9,N
1563811615.6,286047002.7,N
1563811635.5,286047002.3,N
1563811655.3,286047004.0,N
1563811675.1,286047003.9,N
1563811695.9,286047003.9,N
1563811715.7,286047001.7,N
1563811735.6,286047000.3,N
1563811755.4,286047000.4,N
1563811775.2,286047000.6,N
1563811795.1,286047000.3,N
1563811796.0,286047000.3,N
1563811815.8,286047002.5,N
1563811835.7,286047002.6,N
1563811855.5,286047002.5,N
1563811875.3,286047001.6,N
1563811895.2,286047002.1,N
1563811915.0,286047000.0,N
1563811915.9,286047000.0,N
1563811935.7,286047000.5,N
1563811955.6,286047000.7,N
1563811975.4,286046998.1,N
1563811995.3,286047000.1,N
1563812015.1,286047001.1,N
1563812016.0,286047001.1,N
1563812035.8,286046998.1,N
1563812055.7,286047000.7,N
1563812075.5,286047002.6,N
1563812095.3,286047001.0,N
1563812115.2,286046999.8,N
1563812135.0,286047002.6,N
1563812135.9,286047002.6,N
1563812155.8,286047000.0,N
1563812175.6,286047002.6,N
1563812195.4,286047000.9,N
1563812215.3,286046998.6,N
1563812235.1,286046999.8,N
1563812255.9,286046998.5,N
1563812275.7,286047000.5,N
1563812295.5,286047002.3,N
1563812315.4,286047002.7,N
1563812335.2,286046998.9,N
1563812355.0,286047001.2,N
1563812355.9,286047001.2,N
1563812375.8,286047000.6,N
1563812395.6,286046998.4,N
1563812415.5,286046997.0,N
1563812435.3,286046998.2,N
1563812455.1,286046999.4,N
1563812475.9,286046996.8,N
1563812495.7,286046998.8,N
1563812515.5,286047000.9,N
1563812535.4,286046998.5,N
1563812555.2,286046999.1,N
1563812575.1,286046996.8,N
1563812576.0,286046996.8,N
1563812595.8,286046996.5,N
1563812615.6,286046995.5,N
1563812635.5,286046994.9,N
1563812655.3,286046997.9,N
1563812675.1,286046997.5,N
1563812695.9,286047000.7,N
1563812715.7,286047001.1,N
1563812735.6,286046997.4,N
1563812755.4,286046997.5,N
1563812775.2,286046996.5,N
1563812795.1,286046995.2,N
1563812796.0,286046995.2,N
1563812815.8,286046993.7,N
1563812835.6,286046993.9,N
1563812855.5,286046994.6,N
1563812875.3,286046993.4,Y
1563812895.2,286046997.4,P
1563812915.9,286046997.7,P
1563812935.7,286046996.9,P
1563812955.6,286046999.4,N
1563812975.4,286047000.0,N
1563812995.2,286047000.3,N
1563813015.1,286047001.1,N
1563813016.0,286047001.1,N
1563813035.8,286047000.2,N
1563813055.7,286047002.8,N
1563813075.5,286047001.5,N
1563813095.3,286047000.1,N
1563813115.2,286047002.7,N
1563813135.0,286047001.9,N
1563813135.9,286047001.9,N
1563813155.8,286047002.2,N
1563813175.6,286047002.0,N
1563813195.4,286047000.1,N
1563813215.3,286047002.4,N
1563813235.1,286046998.5,N
1563813255.8,286046998.5,N
1563813275.7,286046998.6,N
1563813295.5,286046998.8,N
1563813315.4,286046999.1,N
1563813335.2,286046999.2,N
1563813355.0,286046996.5,N
1563813355.9,286046996.5,N
1563813375.8,286047000.8,N
1563813395.6,286046999.4,N
1563813415.4,286046999.5,N
1563813435.3,286046997.3,N
1563813455.1,286046996.6,N
1563813475.9,286046997.8,N
1563813495.7,286046995.2,N
1563813515.5,286046994.9,N
1563813535.4,286046996.1,N
1563813555.2,286046998.9,N
1563813575.0,286046998.3,N
1563813575.9,286046998.3,N
1563813595.8,286046998.7,N
1563813615.6,286046999.4,N
1563813635.5,286046996.8,N
1563813655.3,286046997.3,N
1563813675.1,286046999.2,N
1563813695.9,286046996.5,N
1563813715.7,286046997.1,N
1563813735.5,286046996.5,N
1563813755.4,286046999.6,N
1563813775.2,286046997.3,N
1563813795.1,286046996.1,N
1563813796.0,286046996.1,N
1563813815.8,286046996.2,N
1563813835.6,286046995.7,N
1563813855.5,286046995.6,N
1563813875.3,286046996.4,N
1563813895.2,286046996.4,N
1563813915.9,286046993.8,Y
1563813935.7,286046999.3,P
1563813955.6,286046999.0,N
1563813975.4,286046999.4,N
1563813995.2,286047001.2,N
1563814015.1,286046998.9,N
1563814016.0,286046998.9,N
1563814035.8,286046999.5,N
1563814055.7,286046999.0,N
1563814075.5,286046999.5,N
1563814095.3,286046997.7,N
1563814115.2,286046997.2,N
1563814135.0,286046999.1,N
1563814135.9,286046999.1,N
1563814155.8,286046996.5,Y
1563814175.6,286046999.0,P
1563814195.4,286046998.7,P
1563814215.3,286046999.5,P
1563814235.1,286046996.7,Y
1563814255.8,286046999.5,P
1563814275.7,286046996.6,P
1563814295.5,286046997.4,N
1563814315.4,286046997.3,N
1563814335.2,286046997.2,N
1563814355.0,286046997.7,N
1563814355.9,286046997.7,N
1563814375.8,286046996.9,Y
1563814395.6,286046998.6,P
1563814415.5,286047000.9,N
1563814435.3,286047000.0,N
1563814455.1,286047000.0,N
1563814475.9,286046999.9,N
1563814495.7,286047002.8,N
1563814515.5,286047000.6,N
1563814535.4,286047000.5,N
1563814555.2,286047000.9,N
1563814575.1,286046998.6,N
1563814576.0,286046998.6,N
1563814595.8,286046998.4,N
1563814615.6,286046999.1,N
1563814635.5,286046999.4,N
1563814655.3,286046997.8,N
1563814675.1,286046995.4,Y
1563814695.9,286046999.6,P
1563814715.7,286046997.2,P
1563814735.6,286046997.6,N
1563814755.4,286046999.4,N
1563814775.2,286047000.8,N
1563814795.1,286046999.5,N
1563814796.0,286046999.5,N
